Tracking 29932 objects as of 4-Dec-2024
HD Live streaming from Space Station
objects crossing your sky now

STARLINK-5990

Track STARLINK-5990 now!
10-day predictions
STARLINK-5990 is classified as:


NORAD ID: 56448
Int'l Code: 2023-064A
Perigee: 577.2 km
Apogee: 581.2 km
Inclination: 70.0 °
Period: 96.1 minutes
Semi major axis: 6950 km
RCS: Unknown
Launch date: May 10, 2023
Source: United States (US)
Launch site: AIR FORCE WESTERN TEST RANGE (AFWTR)
Your satellite tracking list
Your tracking list is empty




NASA's NSSDC Master Catalog

Two Line Element Set (TLE):
1 56448U 23064A   24338.84119818  .00001063  00000-0  96890-4 0  9998
2 56448  69.9996 226.4866 0002840 272.6145  87.4689 14.98329720 86216
Source of the keplerian elements: AFSPC